STARLINK-33785, 63516

Orbit data source: Space-Track

STARLINK-33785, 63516 is a payload satellite owned by SpaceX/Seattle (US) in LEO that was launched on Mon, 07 Apr 2025 UTC via an FALCON 9 launch vehicle from the Air Force Western Test Range (AFWTR). Payload-class satellites include a variety of spacecraft equipped with specific instruments for various scientific and technological missions. These include communications satellites like Starlink; space stations such as the ISS; scientific satellites like the Hubble; Earth observation satellites from companies like Planet Labs, Umbra, and HawkEye 360; GPS; miniature CubeSats for education and research; and military/defense satellites.

Loading next visibility...
Identifier
63516, 2025-071Z
Orbit
LEO
Last TLE update
10 hours ago
Origin
Manufacturer
SpaceX/Seattle
Mission
Operational Commercial Communications
Bus & Motor
STARLINK V2MO, Unknown motor
Mass
575 kg wet, ~530 kg dry
Launch date (UTC)
2025-04-07 (3 months ago)
Launch vehicle
FALCON 9
Launch site
Air Force Western Test Range (AFWTR)
Object type
Payload
Rocket body
Debris
Shape & HBR
Box + 1 Pan, 29 m
Radar Cross Section
41.120 m², Large (>1 m²)

Expand to show TLE details & history

TLE from 10 hours ago
0 STARLINK-33785
1 63516U 25071Z   25191.68125760  .00010160  00000-0  35457-3 0  9994
2 63516  53.1560 184.2502 0000795  76.2596 283.8493 15.30208769 15690
Epoch: 2025-07-10T16:21Z
TLE epoch observation values (Epoch: 2025-07-10T16:21:00.656Z)
Latitude
-0.00004°
Longitude
10.15339°
Altitude
475.958 km
Speed
7.629 km/s
True Right ascension
12h 17m 00s
True Declination
0° 00' 00"
Sunlit
Object was in daylight at epoch
Visualization orbit readout
Latitude
-34.40268°
Longitude
-141.17498°
Altitude
486.5 km
Speed
7.622 km/s
Apparent Right ascension
02h 34m 20s
Apparent Declination
-37° 02' 10"
Sunlit
Object is in daylight
Visualization observer readout
Local Sidereal Time
15:00:34
Azimuth
62.786° ENE
Elevation
-84.115°
Doppler factor
1
Orbital elements
Apogee altitude
475.991 km
Perigee altitude
474.901 km
Semi-major axis
6,853.583 km
Eccentricity
0.00008
Inclination
53.156°
RAAN
184.2502°
Arg. of periapsis
76.2596°
True anomaly
Unknown
Mean anomaly
283.8493°
Eccentric anomaly
Unknown
Mean motion
3.82531 °/min
Orbital period
94.11 mins
BSTAR
0.00035457
Loading maneuver chart data...
Loading SW <> Apogee altitude chart data...
Loading historical data...
Loading historical data...
Loading historical data...
Loading historical data...
Loading historical data...
Loading historical data...
Loading historical data...

STARLINK-33785 Visibility forecast

Observer location: undefined°, undefined°

Span
Click to sort rows by Start time (UTC) header in descending order
Start Az.
Max El. time (UTC)
Max El. Az.
Max El.
End time (UTC)
End Az.
5 mins2025-07-11 03:33:58.360Z283.537° WNW2025-07-11 03:35:58.360Z326.734° NNW23.513°2025-07-11 03:38:58.360Z27.768° NE
5 mins2025-07-11 08:30:58.360Z332.827° NNW2025-07-11 08:32:58.360Z29.771° NE33.358°2025-07-11 08:35:58.360Z102.451° ESE
4 mins2025-07-11 10:08:58.360Z270.228° WNW2025-07-11 10:10:58.360Z225.051° WSW21.569°2025-07-11 10:12:58.360Z184.423° SSW
5 mins2025-07-12 01:26:58.360Z185.468° SSW2025-07-12 01:28:58.360Z118.09° SE31.271°2025-07-12 01:31:58.360Z64.639° ENE
|